GFSMA_850_thetae_231.txt.gz
Theta_e
346 345 343 343 342 342 343 343 339 335 337 340 340 342 340 342 342 340 340 341 341 340 339 337 334 332 333 332 331 330 333 335 337 338 337 333 332 331 330 331 333 332 334
344 344 343 345 341 342 344 344 343 336 334 340 342 342 340 342 341 341 341 342 341 339 339 339 338 334 333 331 330 330 330 334 337 338 336 337 336 334 335 337 336 334 334
344 344 343 343 343 342 343 343 345 340 335 340 341 340 342 342 341 341 341 342 338 333 335 336 337 339 336 332 329 329 330 331 337 339 336 336 337 339 335 335 336 336 334
343 343 342 345 346 343 341 341 343 343 343 343 343 341 342 342 344 341 342 342 344 342 334 333 333 335 334 332 330 329 329 332 335 336 336 338 336 337 338 336 332 333 332
345 345 343 343 343 345 345 344 342 342 343 342 342 342 343 340 344 342 342 343 342 344 338 333 331 331 331 330 329 330 333 334 337 337 337 339 338 338 338 334 333 330 329
345 344 341 345 345 346 346 345 345 342 341 342 342 343 344 343 341 343 343 343 342 341 344 343 340 336 334 335 335 335 336 338 338 338 338 338 337 337 336 332 330 333 336
345 347 343 347 346 347 346 346 344 340 342 342 343 343 343 343 342 341 342 343 343 340 342 342 345 343 342 343 343 343 340 340 342 341 337 336 337 336 333 330 333 337 337
345 347 343 344 345 344 346 346 346 343 341 343 345 342 344 343 343 342 343 343 343 344 343 340 341 344 345 344 344 344 342 341 341 343 341 336 332 332 331 332 338 338 339
345 347 346 345 345 347 345 346 345 344 342 345 345 344 343 344 343 343 342 342 344 345 344 343 342 342 343 344 346 346 344 344 344 343 341 336 333 333 331 335 339 340 340
346 347 348 344 341 344 346 344 345 344 343 346 344 344 342 341 343 342 343 344 343 344 344 343 344 344 344 344 345 344 344 345 343 345 343 340 336 334 334 338 339 340 340
347 346 346 347 344 344 340 343 345 346 344 345 343 344 344 345 342 343 345 343 344 344 344 345 344 344 344 344 345 343 343 344 345 345 344 343 340 337 335 337 338 339 340
347 347 347 346 345 346 340 341 345 348 345 344 344 341 345 345 344 344 345 343 343 343 342 342 342 343 344 343 344 344 343 344 345 344 343 345 344 341 340 337 339 341 341
345 348 347 345 345 346 345 341 345 345 342 345 345 345 344 343 342 342 343 341 341 342 341 340 339 340 341 341 343 344 344 344 343 342 344 345 347 345 340 340 339 341 341
343 345 347 347 344 343 344 343 342 344 344 344 345 345 346 345 342 343 344 343 344 343 342 344 344 343 342 340 339 341 343 343 344 342 344 346 346 347 344 339 339 340 341
344 346 346 347 346 345 344 345 345 344 346 346 345 345 346 345 342 343 345 344 344 344 343 341 342 342 341 340 341 342 344 344 346 345 346 346 346 346 345 344 341 340 341
346 347 343 346 347 345 344 345 342 343 347 345 344 343 346 347 344 345 345 345 344 344 343 342 341 342 340 339 339 342 341 342 346 347 347 347 347 346 342 343 344 343 342
346 347 347 347 348 349 348 347 343 344 344 344 345 344 344 345 346 344 345 345 346 345 344 344 342 342 340 341 340 342 342 343 347 346 345 345 345 345 345 344 344 343 343
344 346 347 346 347 348 348 348 344 343 342 343 344 346 344 344 344 344 345 346 348 346 345 345 345 344 342 343 344 342 343 343 341 344 345 344 341 341 343 341 341 342 343
345 345 347 347 346 347 348 344 345 345 344 347 345 345 345 345 343 344 348 345 346 346 347 347 346 345 342 344 343 341 341 342 343 343 342 344 343 342 342 343 343 343 343
346 346 345 346 347 348 348 344 342 344 343 346 345 343 344 343 342 344 346 346 346 346 344 343 345 347 344 343 342 340 339 341 342 344 343 344 344 344 344 343 343 342 344
347 344 347 348 347 346 348 347 345 343 345 346 344 346 346 346 346 344 347 347 346 344 348 349 347 347 345 346 345 344 345 343 341 339 343 343 341 342 342 344 343 342 342
348 349 347 347 347 346 346 347 347 344 345 345 347 346 348 349 346 348 348 344 346 348 348 346 345 344 345 344 344 343 341 342 345 344 340 340 341 343 342 341 342 341 342
351 351 347 348 346 346 348 346 344 344 346 345 347 348 347 348 348 345 343 343 344 347 345 334 329 327 327 327 327 326 327 329 331 336 345 344 341 339 339 338 338 340 341
352 351 349 347 346 346 347 347 344 343 344 345 349 348 348 349 348 344 344 347 346 341 332 328 325 324 324 327 329 329 329 329 329 329 330 338 340 341 341 342 339 338 338
348 348 348 346 346 347 344 346 347 346 345 345 348 349 349 348 344 346 347 347 343 336 327 323 322 320 322 325 327 329 330 332 333 333 332 332 331 334 337 340 339 339 339
348 349 348 348 346 343 345 344 345 345 344 346 348 348 346 345 344 347 348 345 342 330 323 320 319 323 326 329 332 333 334 334 332 331 333 332 333 334 337 334 334 336 336

GFSMA_850_thetae_234.txt.gz
Theta_e
339 343 342 342 342 343 341 342 342 336 335 335 338 341 340 340 342 340 339 340 337 334 334 334 333 330 330 331 332 331 330 331 334 335 338 337 335 332 331 331 331 331 333
344 342 343 343 344 341 342 343 343 339 335 337 340 339 340 341 340 341 341 341 341 341 339 336 335 331 330 331 332 331 329 330 331 334 338 338 336 336 335 334 335 335 333
341 341 345 342 344 342 343 344 344 343 338 334 339 342 341 341 340 342 340 341 342 341 338 338 339 338 337 331 330 330 329 329 329 331 337 338 336 337 337 337 335 335 334
343 343 342 344 344 343 342 341 343 344 341 336 338 342 340 341 340 341 340 341 342 340 334 333 335 336 337 335 332 330 328 329 329 331 334 335 336 338 336 337 338 335 331
344 344 344 344 343 344 344 341 342 343 343 342 342 342 340 341 340 341 341 342 342 342 344 338 333 333 334 335 333 331 329 329 332 333 335 336 336 339 338 338 337 333 332
343 343 342 339 344 345 345 345 344 342 342 342 343 342 341 341 340 342 342 342 342 342 341 343 339 333 331 331 330 330 332 334 335 337 338 338 338 337 337 338 336 331 330
344 344 346 341 345 345 344 346 345 342 341 341 341 342 342 343 342 341 341 342 341 340 340 342 344 343 340 336 337 339 341 341 339 340 341 341 338 337 336 337 334 331 334
344 345 345 343 346 344 345 344 343 344 342 343 344 343 343 343 343 342 341 340 340 342 340 339 341 340 344 345 342 343 343 343 342 341 341 342 340 335 333 333 332 333 338
346 345 346 342 343 345 344 345 344 344 343 341 345 343 343 343 343 342 341 341 339 341 342 342 341 339 339 342 342 344 345 345 344 343 343 341 340 337 332 332 331 336 339
346 345 346 345 345 342 341 347 346 345 344 342 345 345 343 342 343 343 343 343 341 340 341 342 343 343 341 342 343 342 343 344 345 345 342 343 342 338 335 332 333 337 339
345 346 345 347 347 345 343 345 344 345 346 345 344 344 344 344 344 343 342 342 342 343 342 342 343 342 343 343 343 344 344 345 343 344 344 343 343 341 338 335 335 337 338
344 346 346 345 345 346 345 343 340 343 346 347 344 343 340 343 344 344 344 344 344 342 343 343 343 343 342 342 342 343 343 344 344 343 345 344 344 344 341 339 338 337 338
345 344 346 346 346 345 344 344 342 342 348 345 342 343 344 343 343 343 343 343 342 340 341 341 341 340 340 341 343 341 343 343 345 345 343 342 342 345 346 342 340 339 339
346 344 343 347 347 345 344 345 343 343 343 345 344 344 344 346 345 343 342 343 344 342 342 343 342 343 343 342 341 340 343 344 344 343 343 340 343 344 346 347 345 340 339
347 344 343 345 346 347 344 343 343 344 344 345 343 345 344 344 347 343 343 343 345 344 342 341 342 341 344 343 341 341 339 340 343 343 343 342 343 344 345 345 345 344 341
346 346 344 345 347 347 345 345 344 344 342 343 344 345 343 344 345 344 345 344 344 344 344 342 342 342 341 340 339 339 342 343 344 344 345 345 347 346 347 347 342 343 344
346 346 345 345 346 345 346 345 343 345 343 342 344 344 343 345 345 345 345 344 344 345 345 343 343 342 340 342 341 340 341 341 340 342 346 346 347 346 346 343 342 343 343
347 344 346 346 344 344 346 347 347 347 345 344 343 344 343 344 344 342 343 344 346 347 346 344 343 344 342 341 342 343 342 342 342 342 342 344 344 344 343 341 342 343 342
348 346 344 344 346 346 346 346 346 345 344 344 344 346 344 345 344 344 344 345 344 345 346 346 345 343 343 341 340 342 340 339 340 340 342 342 341 341 344 340 342 341 343
349 346 346 344 345 346 346 346 346 344 343 344 343 344 343 345 344 342 344 343 345 345 345 345 343 344 345 346 345 344 342 341 337 337 340 341 342 343 343 344 343 343 342
347 349 347 345 344 345 346 346 345 345 343 344 344 344 344 343 344 343 344 343 344 345 344 345 346 346 345 344 343 343 342 341 338 339 339 338 339 343 342 342 342 343 343
347 348 345 345 344 347 346 344 345 344 345 344 345 344 344 346 345 345 346 346 344 344 345 346 345 343 335 332 331 331 331 332 328 327 328 334 342 338 339 341 342 342 342
346 345 345 345 345 345 345 345 344 345 344 344 344 345 346 346 347 345 347 344 343 343 345 343 332 327 325 323 323 324 325 327 327 327 328 328 326 331 339 339 338 338 339
343 344 344 344 345 341 343 345 345 345 345 344 344 344 346 346 347 347 345 343 343 346 343 334 327 324 323 322 321 322 322 325 326 327 331 332 331 329 328 338 340 341 340
333 336 343 339 341 346 345 345 346 347 346 344 343 344 347 347 347 347 344 344 346 344 341 330 323 321 320 320 323 326 328 331 332 333 334 333 332 332 332 329 334 340 339
334 335 336 331 333 334 342 343 344 343 345 345 343 343 344 346 347 344 344 346 345 343 340 324 321 319 319 322 326 330 331 332 333 334 332 333 336 336 335 333 330 331 333

GFSMA_850_thetae_237.txt.gz
Theta_e
336 337 342 341 341 343 342 342 342 338 336 336 334 336 337 338 339 340 339 339 338 335 334 334 331 329 330 328 330 330 330 330 332 334 335 337 337 336 332 331 331 331 331
343 344 343 343 343 343 342 342 343 342 338 335 335 337 340 340 341 340 340 340 340 337 334 334 334 333 332 329 330 332 332 330 330 331 333 337 339 337 337 335 333 335 335
343 343 343 343 343 344 343 342 344 343 341 336 335 339 340 339 340 341 342 341 341 341 340 339 336 334 333 330 329 331 332 330 330 330 331 333 338 338 335 337 338 336 335
343 343 342 342 343 343 343 342 343 344 344 341 335 336 341 340 341 341 341 341 342 342 338 335 335 337 339 338 337 335 331 332 331 330 330 332 335 337 337 337 336 338 337
343 344 344 344 342 343 344 343 341 342 343 344 342 338 341 340 340 341 341 340 341 342 343 343 336 333 334 336 337 336 333 332 331 330 331 333 335 338 338 339 338 338 336
345 344 344 341 341 344 344 344 344 342 342 342 343 343 343 341 340 340 341 341 341 341 342 342 343 336 332 333 333 334 333 330 331 333 335 337 338 338 338 338 337 338 335
345 343 344 344 340 344 345 344 346 344 343 342 341 342 342 342 341 341 339 340 342 341 341 341 341 344 341 334 331 331 332 335 340 340 338 341 342 341 338 337 337 337 333
346 345 344 345 343 345 344 345 345 344 343 343 344 345 346 346 343 343 341 340 340 342 340 339 341 342 342 343 342 341 342 342 342 342 341 341 341 342 339 335 334 334 331
347 347 345 345 345 344 344 343 345 345 344 343 343 344 345 346 345 343 343 342 341 340 340 341 339 338 338 339 343 344 343 344 345 344 343 343 342 340 338 333 332 332 332
345 347 346 346 346 343 343 342 346 345 344 344 342 345 344 343 346 342 343 342 342 342 340 340 341 342 342 340 338 340 341 342 343 344 345 344 342 343 339 336 333 331 333
346 346 346 346 346 345 345 342 344 344 345 345 344 344 344 343 343 345 345 345 342 342 342 341 340 341 341 342 342 341 341 342 344 345 344 344 343 343 342 338 335 334 335
346 345 345 346 345 346 346 344 343 341 340 345 346 344 343 342 342 344 346 343 343 343 341 342 342 342 342 343 343 343 342 343 344 344 343 343 344 344 343 341 339 337 336
345 346 344 345 346 346 345 345 343 342 341 341 345 342 343 343 343 344 345 343 345 345 340 341 339 342 342 341 341 341 342 342 343 343 344 343 344 343 343 343 341 338 339
347 347 347 345 344 345 346 346 345 343 341 342 343 342 343 343 346 346 345 344 346 348 346 343 343 343 342 342 342 341 340 340 342 342 344 344 344 341 341 344 345 346 344
345 346 347 346 343 344 347 345 343 343 342 342 341 344 343 344 344 345 346 344 347 347 347 344 341 342 342 341 343 341 340 341 343 343 343 343 343 341 342 344 345 346 345
346 346 345 346 344 343 345 346 345 342 342 343 342 343 343 343 343 345 344 344 345 347 347 345 346 342 342 341 340 339 339 340 339 340 344 344 344 343 344 346 346 346 344
347 346 346 346 345 344 346 346 345 344 342 342 341 342 343 343 344 345 345 344 345 345 347 348 342 344 343 343 343 342 341 339 342 343 342 342 344 346 345 346 346 346 342
346 346 347 345 345 345 346 345 346 345 342 344 343 343 341 344 343 344 344 343 344 345 347 346 347 345 346 345 344 343 343 342 341 342 343 344 346 344 344 344 344 346 342
346 346 347 347 345 346 345 344 345 346 346 345 344 343 342 345 344 344 343 343 343 344 345 345 347 345 342 343 345 342 340 343 342 342 342 342 342 341 341 340 343 344 341
349 348 348 347 345 344 345 346 346 346 345 346 344 344 344 342 344 345 344 342 343 343 345 345 348 349 346 347 345 346 348 349 348 345 344 340 340 342 341 342 342 343 342
347 347 347 346 346 346 344 345 344 345 345 345 344 343 343 344 344 344 343 342 343 345 344 348 349 349 349 348 348 347 344 344 342 334 334 342 343 343 342 342 342 342 342
340 342 345 347 346 344 343 345 345 345 345 345 343 342 343 344 344 343 345 345 342 343 344 348 349 348 347 342 340 328 324 324 333 338 330 335 337 334 344 344 339 340 342
341 340 343 342 337 339 345 344 345 345 345 345 345 343 343 344 343 345 346 345 345 343 343 343 344 342 332 326 324 323 323 321 323 330 329 327 331 332 331 333 338 342 342
336 337 337 342 340 335 339 340 343 344 344 344 344 340 342 344 345 345 344 345 345 342 343 345 342 334 326 323 321 321 322 323 325 332 333 334 337 337 335 336 329 333 340
332 336 334 338 340 340 339 336 338 339 344 343 344 344 345 344 344 344 345 346 344 343 344 344 341 330 323 320 320 321 327 334 335 336 334 335 336 339 338 339 338 329 339
331 331 335 336 333 332 332 335 335 336 336 342 345 345 343 343 344 345 347 345 345 344 346 344 340 324 321 319 321 325 330 331 332 334 337 334 338 338 339 338 339 339 333

GFSMA_850_thetae_240.txt.gz
Theta_e
347 338 341 344 348 349 343 343 345 346 345 346 344 344 344 344 346 345 345 340 336 336 335 335 334 327 331 330 330 329 330 330 332 335 336 336 337 337 335 332 331 331 331
347 348 343 344 346 346 343 342 343 344 346 344 344 343 345 345 347 346 346 345 340 337 335 334 334 331 327 330 334 329 331 332 330 331 333 335 337 339 338 337 335 333 334
349 345 345 343 345 344 344 342 343 345 345 347 345 342 344 345 347 348 348 347 346 340 335 333 334 334 333 333 331 329 331 332 331 330 333 331 332 337 339 336 337 338 337
344 345 349 349 346 344 345 345 344 345 346 345 346 345 345 346 347 347 348 348 347 347 343 339 338 339 337 334 333 337 336 333 331 331 330 331 331 332 337 336 338 337 337
348 346 348 348 345 346 349 348 347 346 346 345 347 346 346 347 347 345 346 347 348 347 346 346 339 334 334 336 338 338 338 339 333 333 332 331 333 334 337 337 338 338 338
347 347 349 348 345 347 349 349 348 349 349 345 348 348 348 348 346 345 345 346 346 346 347 348 347 340 335 333 333 334 336 336 335 333 331 333 336 339 338 338 338 337 338
348 345 347 348 347 349 345 347 349 349 350 349 348 348 348 348 347 347 346 346 345 347 346 347 347 346 346 338 332 333 333 334 332 332 336 339 339 342 342 339 338 337 337
346 348 345 349 349 350 345 347 347 346 347 349 345 346 350 349 347 347 347 346 346 346 345 346 347 348 348 348 343 333 332 332 338 341 341 341 341 340 341 341 337 335 335
346 350 350 346 350 347 350 343 342 343 349 350 348 345 345 346 346 349 349 349 347 346 345 346 346 348 345 347 348 343 342 342 342 343 343 343 342 343 341 340 337 332 332
350 351 347 346 345 350 350 344 347 347 347 348 350 347 346 349 348 347 343 346 349 350 349 346 345 348 349 348 347 347 347 343 343 343 344 344 345 343 342 342 338 333 333
351 346 350 347 346 348 351 343 350 343 349 350 349 349 350 348 349 349 349 345 349 346 346 349 348 347 348 349 349 350 344 339 340 342 343 344 344 344 342 342 339 336 333
346 352 350 348 345 346 345 346 345 346 342 349 349 347 348 348 349 345 349 348 346 341 346 343 344 349 348 347 344 346 347 342 342 342 343 344 344 343 344 343 342 339 336
349 351 352 346 345 345 346 345 346 348 349 348 348 349 348 348 345 346 349 349 348 350 348 345 348 347 342 343 344 342 342 342 342 341 342 343 344 343 344 344 342 339 338
347 347 349 347 346 345 348 346 346 348 350 349 350 350 349 349 349 345 348 348 347 348 350 350 345 343 348 342 342 342 340 340 341 341 342 343 343 343 344 344 344 344 344
346 347 346 346 348 347 345 349 346 349 349 349 349 349 349 349 350 349 348 347 349 349 348 352 348 348 347 343 343 342 342 346 340 340 342 343 344 344 343 340 341 344 344
347 346 345 345 346 346 344 344 347 350 349 349 348 350 348 350 348 349 350 348 350 350 349 349 348 350 349 348 347 340 340 340 340 342 343 342 343 343 342 340 342 343 344
345 346 345 345 346 347 348 343 345 350 347 349 350 350 349 346 345 350 350 352 350 350 348 348 350 350 343 342 346 342 342 342 346 342 340 342 344 343 344 343 344 345 346
344 344 347 348 346 346 347 345 345 349 350 349 351 351 350 350 350 347 350 352 350 350 349 350 349 350 348 350 347 344 345 347 348 346 343 341 341 341 342 345 346 345 346
348 347 346 346 346 346 345 347 346 348 350 351 351 352 351 351 351 351 352 351 351 351 350 350 350 349 350 351 350 348 349 349 350 348 342 341 341 341 343 342 343 344 344
346 348 347 346 347 346 345 344 345 345 348 350 351 351 351 351 351 351 344 345 345 344 349 350 349 349 348 349 351 348 347 348 349 346 348 346 344 342 339 340 341 341 341
346 347 344 343 343 345 346 345 344 344 348 350 350 351 351 352 349 346 343 345 345 345 348 350 349 347 345 345 345 343 344 342 342 342 341 342 342 345 348 346 342 341 341
339 343 339 336 337 338 345 343 343 344 344 346 347 346 347 348 345 343 344 344 345 343 350 348 347 345 348 346 343 341 338 336 334 333 339 337 335 336 337 339 344 345 343
344 342 341 339 336 338 339 336 335 341 343 344 344 344 346 349 348 345 345 344 344 345 344 346 350 351 349 346 338 328 337 336 334 333 334 333 334 335 335 335 334 336 344
340 341 337 337 340 342 341 337 334 335 338 342 344 343 344 345 345 347 345 344 347 349 345 345 348 352 347 336 326 324 321 320 328 335 338 338 338 339 339 340 340 338 335
329 330 333 336 336 340 343 341 338 336 336 340 343 343 343 344 341 340 342 345 347 351 346 345 344 345 342 337 325 322 332 335 336 337 338 338 339 339 339 341 342 341 340
336 340 340 337 337 334 332 334 341 342 344 345 342 342 343 343 341 340 343 344 345 347 350 347 344 346 342 332 322 320 332 336 337 337 340 340 340 337 341 343 341 342 339

GFSMA_850_thetae_246.txt.gz
Theta_e
347 347 345 343 346 347 346 343 347 346 345 345 345 345 345 346 345 344 343 343 343 342 340 336 335 335 334 338 332 334 328 331 330 331 332 333 336 337 337 336 333 331 332
348 346 347 343 340 343 349 346 343 347 345 345 345 344 345 342 343 344 344 345 344 344 338 336 335 335 335 335 331 331 330 327 329 330 331 332 334 334 336 338 337 336 333
349 348 347 343 343 343 345 344 343 343 344 346 343 344 344 344 345 343 345 344 345 345 341 337 335 334 334 333 332 327 328 328 328 330 330 330 331 334 332 335 338 336 336
348 347 349 344 347 343 343 345 346 344 345 344 347 344 346 342 343 344 344 343 344 346 345 334 334 334 334 333 329 326 326 333 328 330 332 331 330 330 330 331 332 337 336
350 347 345 348 348 345 345 345 346 347 345 345 347 347 346 346 345 346 346 345 345 345 346 348 341 331 331 332 329 326 328 329 329 328 329 330 331 331 331 331 333 334 337
350 351 345 348 351 347 348 346 349 348 347 347 347 351 348 346 347 347 346 346 347 348 346 345 347 346 345 339 334 334 334 334 332 331 331 333 335 332 331 332 335 337 338
350 352 349 346 350 344 349 346 348 350 350 350 347 349 348 347 346 347 347 347 347 347 348 347 347 347 344 343 344 343 335 332 334 336 336 337 337 333 332 335 338 340 340
349 351 349 346 353 347 350 349 344 346 345 348 349 347 344 345 346 348 347 346 347 346 347 345 347 344 342 343 348 348 344 335 332 332 333 337 336 332 337 339 340 341 342
352 350 348 349 349 350 350 349 348 346 345 348 351 349 347 346 345 347 346 348 346 347 345 347 348 346 346 343 340 344 349 347 338 332 332 333 331 339 341 341 341 341 340
351 352 349 348 346 347 349 349 350 349 347 345 347 348 348 343 345 346 345 343 348 347 345 350 349 347 347 345 347 341 347 349 347 338 334 336 340 341 342 343 343 342 341
351 348 350 350 349 347 346 348 353 352 349 348 350 349 351 348 351 349 346 347 346 347 346 347 347 347 350 348 346 346 340 346 345 345 343 342 341 342 343 343 344 344 342
353 351 350 349 349 348 346 347 349 348 345 349 350 349 349 349 343 348 348 347 347 346 345 345 345 345 346 349 349 348 348 345 348 347 349 344 341 342 342 342 343 343 343
353 352 350 350 350 347 346 346 347 347 347 347 346 346 348 350 350 350 347 346 346 345 349 349 349 344 347 347 351 349 349 347 347 350 350 349 345 341 341 342 343 343 343
347 342 350 351 352 350 350 351 348 347 345 346 347 346 345 348 350 350 349 349 343 346 349 344 344 347 344 343 349 351 349 349 348 345 344 345 346 344 343 342 342 344 343
351 353 347 348 349 348 351 351 349 346 345 346 348 349 348 343 348 349 351 350 350 350 346 347 345 350 351 346 350 346 342 342 342 342 341 341 341 340 341 341 342 343 343
349 351 353 348 348 348 349 350 351 350 350 347 347 348 349 347 350 351 351 349 350 349 346 349 350 348 351 352 349 348 348 344 342 341 341 343 340 341 340 340 342 343 343
348 346 348 348 347 351 351 352 348 349 352 351 348 349 350 347 348 346 352 350 351 349 349 349 351 351 350 349 346 347 350 345 346 346 348 347 341 341 341 342 342 343 342
347 351 352 350 349 347 348 350 348 347 348 348 346 348 347 347 349 346 346 347 349 351 351 348 349 351 351 346 346 344 343 347 353 352 350 348 345 340 341 341 341 342 342
344 351 349 352 352 349 349 351 352 348 348 351 347 347 346 345 345 350 349 350 351 350 348 350 349 347 346 352 349 345 346 343 344 345 345 344 344 340 340 340 340 341 341
341 342 345 344 341 339 348 349 352 352 350 347 348 345 346 345 344 347 348 347 346 348 349 350 349 345 348 349 346 349 348 347 346 348 349 346 348 348 345 343 341 340 340
353 353 347 341 345 345 341 345 351 347 346 348 346 347 349 346 353 350 348 349 346 345 343 345 345 342 346 348 348 348 350 345 342 344 342 338 338 341 344 344 345 344 346
352 352 351 349 344 342 343 341 348 343 341 343 343 342 344 344 346 346 351 351 351 347 345 344 343 343 338 348 350 346 345 342 340 339 338 337 337 340 340 338 335 334 334
335 345 349 351 351 350 346 346 346 342 343 343 343 340 341 346 346 347 348 347 347 348 345 344 344 346 351 348 349 347 343 341 334 327 329 330 330 332 334 336 336 337 338
331 333 332 336 341 344 347 348 348 345 343 344 340 338 338 337 342 343 346 348 346 347 345 345 344 342 341 343 349 342 340 331 326 330 338 338 339 340 339 339 340 341 341
328 329 339 340 340 341 342 339 335 338 339 339 342 342 342 342 338 341 342 346 346 347 345 344 345 344 343 344 349 345 343 341 331 331 340 341 340 339 339 340 340 340 341
335 338 335 329 328 328 331 326 328 330 332 334 335 334 334 333 330 340 345 343 343 346 346 343 343 342 337 345 349 347 344 343 337 331 337 338 339 339 339 339 342 342 341